Hourly Data Report for October 16, 2014

All times are specified in Local Standard Time (LST). Add 1 hour to adjust for Daylight Saving Time where and when it is observed.

KUGAARUK CLIMATE
NUNAVUT

68°32'15.060" N
89°47'47.020" W
15.80 m
2303094
71407
NBB

Download Data

Hourly Data (October 2014)
Hourly Data Report for October 16, 2014
Temp Definition
°C
Dew Point Temp Definition
°C
Rel Hum Definition
%
Wind Dir Definition
10's deg

Wind Spd Definition
km/h
Visibility Definition
km
Stn Press Definition
kPa
Hmdx Definition


Wind Chill Definition


Weather Definition


TIME
00:00 -3.6 -5.7 86 31 18   101.41   -9 LegendNANA
01:00 -4.1 -6.0 87 32 19   101.44   -10 LegendNANA
02:00 -4.3 -6.1 87 32 15   101.47   -10 LegendNANA
03:00 -4.1 -5.5 90 31 15   101.49   -9 LegendNANA
04:00 -4.1 -5.7 88 32 19   101.51   -10 LegendNANA
05:00 -4.6 -6.1 89 32 13   101.55   -10 LegendNANA
06:00 -4.3 -5.8 89 31 15   101.56   -10 LegendNANA
07:00 -4.3 -5.8 89 30 10   101.59   -8 LegendNANA
08:00 -4.2 -5.6 90 27 15   101.59   -10 LegendNANA
09:00 -3.1 -5.0 87 32 16   101.57   -8 LegendNANA
10:00 -3.0 -5.1 85 33 15   101.62   -8 LegendNANA
11:00 -2.9 -5.0 86 33 15   101.67   -8 LegendNANA
12:00 -3.0 -5.1 86 34 19   101.72   -9 LegendNANA
13:00 -3.3 -5.1 88 33 16   101.76   -9 LegendNANA
14:00 -3.7 -5.4 88 35 15   101.82   -9 LegendNANA
15:00 -3.7 -5.4 88 35 26   101.85   -11 LegendNANA
16:00 -3.7 -5.2 90 35 26   101.93   -11 LegendNANA
17:00 -3.9 -5.7 87 35 30   101.97   -12 LegendNANA
18:00 -3.8 -5.8 86 33 21   102.02   -10 LegendNANA
19:00 -3.8 -5.8 86 35 21   102.05   -10 LegendNANA
20:00 -3.9 -5.9 86 35 18   102.06   -10 LegendNANA
21:00 -4.1 -6.1 86 34 9   102.10   -8 LegendNANA
22:00 -5.0 -6.4 90 3 9   102.13   -9 LegendNANA
23:00 -5.2 -6.3 92 36 2   102.16   -6 LegendNANA

Notes on Data Quality.

Legend

  • E = Estimated
  • M = Missing
  • NA = Not Available
  • ‡ = Partner data that is not subject to review by the National Climate Archives
Date modified: